Laconia, NH

3:17 PM EST on January 19, 2018 (GMT -0500)
Laconia Municipal

Weather History for KLCI - December, 2013

Change the Weather History Date:

Saturday, December 14, 2013

  Actual Average Record
Temperature  
Mean Temperature 6 °F -  
Max Temperature 12 °F 35 °F 53 °F (1984)
Min Temperature 1 °F 19 °F -3 °F (1976)
Degree Days  
Heating Degree Days 58    
Moisture  
Dew Point -5 °F    
Average Humidity 59    
Maximum Humidity 85    
Minimum Humidity 41    
Precipitation  
Precipitation 0.00 in - - ()
Sea Level Pressure  
Sea Level Pressure 30.46 in    
Wind  
Wind Speed 5 mph (ENE)    
Max Wind Speed 16 mph    
Max Gust Speed 20 mph    
Visibility 8 miles    
Events      
Averages and records for this station are not official NWS values.
T = Trace of Precipitation, MM = Missing Value Source: NWS Daily Summary

Daily Weather History Graph

Daily Weather History Graph

Search for Another Location

Airport or City:

Trip Planner

Search our weather history database for the weather conditions in past years. The results will help you decide how hot, cold, wet, or windy it might be!

Date:

Astronomy

Dec. 14, 2013 Rise Set
Actual Time 7:11 AM EST 4:09 PM EST
Civil Twilight 6:38 AM EST 4:42 PM EST
Nautical Twilight 6:02 AM EST 5:18 PM EST
Astronomical Twilight 5:27 AM EST 5:53 PM EST
Moon 2:32 PM EST (12/14) 4:25 AM EST (12/14)
Length of Visible Light 10h 03m
Length of Day
8h 58m
Waxing Gibbous, 93% of the Moon is Illuminated
Dec 14
Waxing Gibbous
Dec 17
Full
Dec 25
Last Quarter
Jan 1
New
Jan 7
First Quarter

Hourly Weather History & Observations

Time (EST) Temp. Windchill Dew Point Humidity Pressure Visibility Wind Dir Wind Speed Gust Speed Precip Events Conditions
12:15 AM 5.0 °F -8.1 °F -7.6 °F 56% 30.37 in 10.0 mi West 8.1 mph - N/A   Clear
12:35 AM 5.0 °F -5.6 °F -7.6 °F 56% 30.38 in 10.0 mi West 5.8 mph - N/A   Clear
12:55 AM 3.2 °F -9.1 °F -7.6 °F 61% 30.39 in 10.0 mi West 6.9 mph - N/A   Clear
1:15 AM 3.2 °F - -7.6 °F 61% 30.39 in 10.0 mi Calm Calm - N/A   Clear
1:35 AM 3.2 °F - -9.4 °F 56% 30.40 in 10.0 mi Calm Calm - N/A   Clear
1:55 AM 3.2 °F -6.2 °F -7.6 °F 61% 30.40 in 10.0 mi West 4.6 mph - N/A   Clear
2:15 AM 3.2 °F - -7.6 °F 61% 30.41 in 10.0 mi Calm Calm - N/A   Clear
2:35 AM 3.2 °F -6.2 °F -9.4 °F 56% 30.42 in 10.0 mi SW 4.6 mph - N/A   Clear
2:55 AM 3.2 °F -4.2 °F -7.6 °F 61% 30.42 in 10.0 mi West 3.5 mph - N/A   Clear
3:15 AM 3.2 °F -4.2 °F -9.4 °F 56% 30.42 in 10.0 mi NW 3.5 mph - N/A   Clear
3:35 AM 1.4 °F - -9.4 °F 61% 30.42 in 10.0 mi Calm Calm - N/A   Clear
3:55 AM 1.4 °F - -9.4 °F 61% 30.42 in 10.0 mi Calm Calm - N/A   Clear
4:15 AM 3.2 °F -6.2 °F -9.4 °F 56% 30.43 in 10.0 mi SW 4.6 mph - N/A   Clear
4:35 AM 3.2 °F -4.2 °F -9.4 °F 56% 30.44 in 10.0 mi West 3.5 mph - N/A   Clear
4:55 AM 3.2 °F - -9.4 °F 56% 30.45 in 10.0 mi Calm Calm - N/A   Clear
5:15 AM 3.2 °F -9.1 °F -9.4 °F 56% 30.46 in 10.0 mi South 6.9 mph - N/A   Clear
5:35 AM 1.4 °F -13.5 °F -9.4 °F 61% 30.46 in 10.0 mi WSW 9.2 mph - N/A   Clear
5:55 AM 3.2 °F -6.2 °F -9.4 °F 56% 30.48 in 10.0 mi WSW 4.6 mph - N/A   Clear
6:15 AM 3.2 °F -7.8 °F -9.4 °F 56% 30.48 in 10.0 mi WSW 5.8 mph - N/A   Clear
6:35 AM 3.2 °F -6.2 °F -9.4 °F 56% 30.49 in 10.0 mi West 4.6 mph - N/A   Clear
6:55 AM 3.2 °F -6.2 °F -9.4 °F 56% 30.49 in 10.0 mi West 4.6 mph - N/A   Clear
7:15 AM 1.4 °F -6.2 °F -9.4 °F 61% 30.50 in 10.0 mi WSW 3.5 mph - N/A   Clear
7:35 AM 1.4 °F -6.2 °F -11.2 °F 56% 30.50 in 10.0 mi West 3.5 mph - N/A   Clear
7:55 AM 1.4 °F - -11.2 °F 56% 30.50 in 10.0 mi Calm Calm - N/A   Clear
8:15 AM 3.2 °F - -9.4 °F 56% 30.51 in 10.0 mi Calm Calm - N/A   Clear
8:35 AM 3.2 °F -4.2 °F -9.4 °F 56% 30.52 in 10.0 mi SW 3.5 mph - N/A   Clear
8:55 AM 3.2 °F -4.2 °F -9.4 °F 56% 30.53 in 10.0 mi SW 3.5 mph - N/A   Clear
9:15 AM 5.0 °F - -7.6 °F 56% 30.54 in 10.0 mi Calm Calm - N/A   Clear
9:35 AM 6.8 °F - -9.4 °F 48% 30.54 in 10.0 mi Calm Calm - N/A   Clear
9:55 AM 6.8 °F - -9.4 °F 48% 30.55 in 10.0 mi Calm Calm - N/A   Clear
10:15 AM 6.8 °F -3.5 °F -9.4 °F 48% 30.56 in 10.0 mi SW 5.8 mph - N/A   Clear
10:35 AM 6.8 °F -2.0 °F -9.4 °F 48% 30.56 in 10.0 mi West 4.6 mph - N/A   Clear
10:55 AM 6.8 °F -0.1 °F -7.6 °F 52% 30.55 in 10.0 mi WSW 3.5 mph - N/A   Clear
11:15 AM 8.6 °F - -7.6 °F 48% 30.56 in 10.0 mi Calm Calm - N/A   Clear
11:35 AM 8.6 °F 2.0 °F -7.6 °F 48% 30.56 in 10.0 mi SW 3.5 mph - N/A   Clear
11:55 AM 8.6 °F - -5.8 °F 52% 30.55 in 10.0 mi Calm Calm - N/A   Clear
12:15 PM 8.6 °F - -5.8 °F 52% 30.54 in 10.0 mi Calm Calm - N/A   Clear
12:35 PM 8.6 °F 2.0 °F -5.8 °F 52% 30.54 in 10.0 mi SW 3.5 mph - N/A   Clear
12:55 PM 10.4 °F - -5.8 °F 48% 30.53 in 10.0 mi Calm Calm - N/A   Clear
1:15 PM 10.4 °F - -4.0 °F 52% 30.53 in 10.0 mi Calm Calm - N/A   Clear
1:35 PM 10.4 °F - -4.0 °F 52% 30.53 in 10.0 mi Calm Calm - N/A   Clear
1:55 PM 12.2 °F - -0.4 °F 57% 30.52 in 10.0 mi Calm Calm - N/A   Clear
2:15 PM 12.2 °F 6.1 °F -4.0 °F 48% 30.52 in 10.0 mi NNW 3.5 mph - N/A   Clear
2:35 PM 12.2 °F 1.7 °F -5.8 °F 45% 30.51 in 10.0 mi ENE 6.9 mph - N/A   Clear
2:55 PM 12.2 °F 0.7 °F -7.6 °F 41% 30.51 in 10.0 mi ENE 8.1 mph - N/A   Clear
3:15 PM 12.2 °F 1.7 °F -5.8 °F 45% 30.51 in 10.0 mi East 6.9 mph - N/A   Clear
3:35 PM 12.2 °F 2.9 °F -7.6 °F 41% 30.52 in 10.0 mi East 5.8 mph - N/A   Clear
3:55 PM 12.2 °F 4.3 °F -5.8 °F 45% 30.51 in 10.0 mi East 4.6 mph - N/A   Clear
4:15 PM 12.2 °F 2.9 °F -5.8 °F 45% 30.50 in 10.0 mi East 5.8 mph - N/A   Clear
4:35 PM 12.2 °F 4.3 °F -7.6 °F 41% 30.50 in 10.0 mi SE 4.6 mph - N/A   Clear
4:55 PM 12.2 °F 1.7 °F -7.6 °F 41% 30.49 in 10.0 mi ESE 6.9 mph - N/A   Clear
5:15 PM 12.2 °F 0.7 °F -5.8 °F 45% 30.46 in 10.0 mi East 8.1 mph - N/A   Clear
5:35 PM 12.2 °F 0.7 °F -5.8 °F 45% 30.46 in 10.0 mi East 8.1 mph - N/A   Clear
5:55 PM 12.2 °F -2.5 °F -5.8 °F 45% 30.46 in 10.0 mi East 12.7 mph - N/A   Partly Cloudy
6:15 PM 12.2 °F -4.3 °F -4.0 °F 48% 30.45 in 7.0 mi ENE 16.1 mph - N/A   Mostly Cloudy
6:35 PM 10.4 °F 0.8 °F 1.4 °F 67% 30.44 in 3.0 mi East 5.8 mph - N/A   Overcast
6:55 PM 10.4 °F -4.1 °F 1.4 °F 67% 30.44 in 3.0 mi ENE 11.5 mph - N/A   Overcast
7:15 PM 10.4 °F -4.8 °F 3.2 °F 73% 30.44 in 4.0 mi East 12.7 mph 17.3 mph N/A   Overcast
7:35 PM 10.4 °F -2.4 °F 3.2 °F 73% 30.44 in 2.0 mi ENE 9.2 mph - N/A   Overcast
7:55 PM 10.4 °F -2.4 °F 3.2 °F 73% 30.43 in 2.0 mi NE 9.2 mph - N/A   Overcast
8:15 PM 10.4 °F -3.3 °F 3.2 °F 73% 30.41 in 2.0 mi ENE 10.4 mph 16.1 mph N/A   Mostly Cloudy
8:35 PM 10.4 °F -4.1 °F 3.2 °F 73% 30.39 in 1.0 mi ENE 11.5 mph 18.4 mph N/A   Overcast
8:55 PM 10.4 °F -1.5 °F 5.0 °F 79% 30.39 in 2.0 mi NE 8.1 mph - N/A   Overcast
9:15 PM 10.4 °F -1.5 °F 6.8 °F 85% 30.37 in 2.0 mi ENE 8.1 mph 16.1 mph N/A   Overcast
9:35 PM 10.4 °F -3.3 °F 5.0 °F 79% 30.35 in 1.0 mi NE 10.4 mph 16.1 mph N/A   Overcast
9:55 PM 10.4 °F -5.4 °F 5.0 °F 79% 30.34 in 2.0 mi NE 13.8 mph 19.6 mph N/A   Scattered Clouds
10:15 PM 10.4 °F -2.4 °F 5.0 °F 79% 30.34 in 1.2 mi NE 9.2 mph 19.6 mph N/A   Mostly Cloudy
10:35 PM 10.4 °F 0.8 °F 6.8 °F 85% 30.34 in 1.0 mi East 5.8 mph - N/A   Overcast
10:55 PM 10.4 °F -1.5 °F 6.8 °F 85% 30.32 in 0.8 mi NE 8.1 mph - N/A   Overcast
11:15 PM 10.4 °F -2.4 °F 6.8 °F 85% 30.30 in 0.8 mi NE 9.2 mph - N/A   Overcast
11:35 PM 10.4 °F -4.8 °F 6.8 °F 85% 30.28 in 0.5 mi NE 12.7 mph 16.1 mph N/A   Overcast
11:55 PM 10.4 °F -5.4 °F 6.8 °F 85% 30.25 in 0.5 mi NE 13.8 mph - N/A   Overcast